Погода в Висбадене

Германия     50°04′40″N   8°14′57″E
темп.,
°C
ветер,
м/с
пор.,
м/с
влажн.,
%
обл.,
%
осадки,
мм/ч
давл.,
гПа
погр.,
м
18 мая, вт
вт1823:00+9зюз25967 0.6 1011140
02:00+7зюз239799 0.6 101284
05:00+6юз25976 0.0 1013160
08:00+8зюз3791100 0.0 1015701
11:00+9юз3783100 0.1 10151065
14:00+10зюз4783100 0.3 1015824
17:00+12з466794 0.1 10141236
20:00+11зюз367526 0.4 1015557
19 мая, ср
ср1923:00+8з129290 0.0 101755
02:00+7зюз229395 0.1 101770
05:00+6з119215 0.1 101834
08:00+8юз238221 0.1 1019244
11:00+13зюз466041 0.2 10181408
14:00+13зюз3572100 1.3 1017942
17:00+11зсз378290 1.3 1018446
20:00+12зюз36755 1.4 1018397
20 мая, чт
чт2023:00+8з129178 0.1 101944
02:00+7з129399 0.3 102051
05:00+6зсз229598 0.1 102153
08:00+9зсз258510 0.1 1023377
11:00+14зсз23505 0.0 10241447
14:00+17зюз343816 0.0 10232294
17:00+18юз343763 0.0 10222174
20:00+14юз37697 0.1 1022352
21 мая, пт
пт2123:00+10зюз2383100 0.0 102397
02:00+9ююз1386100 0.0 1021116
05:00+8ю1289100 0.0 101947
08:00+10ююз2483100 0.1 1018252
11:00+14ю3666100 0.1 1015772
14:00+18ююз41144100 0.1 10111982
17:00+17юз41163100 0.1 10091556
20:00+13зюз41189100 1.6 1009738
22 мая, сб
сб2223:00+11зюз51289100 4.8 1009972
02:00+9юз398927 5.1 1008492
05:00+8юз4992100 0.0 1009829
08:00+9юз61169100 0.1 10101403
11:00+11юз7136994 0.0 10111322
14:00+11юз6138094 0.8 10111467
17:00+13юз6127081 0.4 10101806
20:00+12юз5137889 1.1 10111303